Date,TemperatureHighF,TemperatureAvgF,TemperatureLowF,DewpointHighF,DewpointAvgF,DewpointLowF,HumidityHigh,HumidityAvg,HumidityLow,PressureMaxIn,PressureMinIn,WindSpeedMaxMPH,WindSpeedAvgMPH,GustSpeedMaxMPH,PrecipitationSumIn
2013-2-1,18.9,13.0,7.2,11.2,5.4,0.7,83,71,59,30.39,30.03,14,2,14,0.00
2013-2-2,31.2,23.5,13.3,27.4,19.8,8.6,100,86,75,30.30,29.98,8,1,11,0.04
2013-2-3,28.3,22.7,17.5,24.4,18.5,14.3,90,84,76,30.11,29.93,7,1,13,0.00
2013-2-4,35.2,26.5,16.2,34.3,23.4,14.3,100,88,70,30.10,29.82,12,1,12,0.01
2013-2-5,37.9,34.3,27.6,34.7,31.4,25.8,97,89,81,30.01,29.84,5,0,8,0.05
2013-2-6,37.9,34.4,30.5,32.9,29.4,26.8,87,82,74,30.24,30.01,8,0,11,0.00
2013-2-7,61.7,44.6,31.8,39.5,33.9,27.5,92,68,40,30.19,29.81,10,2,12,0.00
2013-2-8,52.4,37.8,31.4,46.1,32.6,24.4,94,82,60,30.31,29.81,13,2,20,0.08
2013-2-9,41.7,33.0,23.4,24.8,20.6,18.0,82,62,39,30.40,30.23,10,1,13,0.00
2013-2-11,50.0,45.3,38.4,39.5,31.3,28.4,69,58,48,30.06,29.83,18,5,24,0.00
2013-2-12,49.3,38.8,29.8,29.3,26.9,23.6,85,64,37,30.14,29.90,10,1,10,0.00
2013-2-13,36.4,33.2,30.3,32.0,28.5,25.6,94,83,71,29.90,29.77,6,0,7,0.09
2013-2-14,53.9,40.9,30.7,39.8,34.2,28.7,95,78,52,30.00,29.83,12,2,14,0.01
2013-2-15,41.2,34.0,26.1,32.0,27.8,21.2,91,78,58,30.15,29.99,11,1,14,0.00
2013-2-16,29.7,24.3,18.9,22.4,17.4,10.9,94,76,50,30.14,30.03,9,1,13,0.00
2013-2-17,33.2,23.5,14.8,15.6,10.6,5.7,88,60,33,30.23,30.10,8,0,10,0.00
2013-2-18,59.2,42.2,25.4,40.7,26.1,8.6,83,53,43,30.19,29.76,19,5,24,0.05
2013-2-19,45.7,37.7,24.6,41.9,33.0,15.2,95,83,61,30.11,29.68,17,6,22,0.14
2013-2-20,30.6,24.1,19.8,16.4,14.2,11.7,79,66,52,30.28,30.11,11,1,14,0.00
2013-2-21,33.6,25.6,17.7,27.1,19.2,13.5,89,77,62,30.32,30.02,18,2,22,0.00
2013-2-22,44.0,36.5,29.8,40.3,34.1,27.1,98,91,82,30.05,29.87,12,2,15,0.05
2013-2-23,45.1,36.2,32.0,33.1,28.7,25.7,96,76,50,29.99,29.90,6,0,8,0.00
2013-2-24,44.1,33.1,26.2,28.5,24.8,22.3,89,73,51,30.14,29.93,6,0,9,0.00
2013-2-25,46.8,36.3,26.1,28.7,24.6,21.3,83,64,46,30.16,29.88,15,3,18,0.00
2013-2-26,49.9,42.3,36.5,49.0,37.7,24.2,97,85,56,29.89,29.37,21,4,21,0.99
2013-2-27,41.0,36.7,33.2,39.1,34.0,30.3,95,90,80,29.74,29.54,15,4,17,0.04
2013-2-28,36.5,34.0,31.9,33.7,31.3,29.2,94,90,86,29.93,29.71,13,2,14,0.01